DW4360 Weather Reports


time (UTC)temp
C
wind
direction
speed
KPH
gust
KPH
rain 1hr
cm
rain 24hr
cm
rain mn
cm
humidity
%
barometer
mb
20200531072156 11 325 0.0 0.0 0.00 0.00 0.86 95 1015.1
20200531071155 11 325 0.0 0.0 0.00 0.00 0.86 95 1015.2
20200531070154 11 325 0.0 0.0 0.00 0.00 0.86 94 1015.2
20200531065153 11 325 0.0 0.0 0.00 0.00 0.86 94 1015.2
20200531064152 11 325 0.0 0.0 0.00 0.00 0.86 94 1015.3
20200531063151 11 198 0.0 0.0 0.00 0.00 0.84 94 1015.2
20200531062150 11 198 0.0 0.0 0.00 0.00 0.84 94 1015.2
20200531061149 11 191 0.0 0.0 0.00 0.00 0.84 94 1015.3
20200531060148 11 190 0.0 0.0 0.00 0.00 0.84 94 1015.2
20200531055147 11 190 0.0 0.0 0.00 0.00 0.84 94 1015.2
20200531054145 11 190 0.0 0.0 0.00 0.00 0.84 94 1015.1
20200531053144 11 190 0.0 0.0 0.00 0.00 0.84 94 1015.0
20200531052143 11 190 0.0 0.0 0.00 0.00 0.84 94 1014.8
20200531051143 11 190 0.0 0.0 0.00 0.00 0.84 94 1014.8
20200531050142 11 190 3.2 0.0 0.00 0.00 0.84 94 1014.7
20200531045141 11 220 0.0 0.0 0.00 0.00 0.84 94 1014.6
20200531044140 11 220 0.0 0.0 0.00 0.00 0.84 94 1014.6
20200531043138 11 220 0.0 0.0 0.00 0.00 0.84 93 1014.6
20200531042137 11 220 0.0 0.0 0.00 0.00 0.84 93 1014.5
20200531041137 12 220 0.0 0.0 0.00 0.00 0.84 93 1014.5
20200531040135 12 220 0.0 0.0 0.00 0.00 0.84 93 1014.4
20200531035134 12 220 0.0 0.0 0.00 0.00 0.84 93 1014.1
20200531034134 12 220 0.0 0.0 0.00 0.00 0.84 94 1014.2
20200531033132 12 220 0.0 0.0 0.00 0.00 0.84 93 1014.0
20200531032131 12 220 0.0 0.0 0.00 0.00 0.84 94 1014.2
20200531031130 12 220 0.0 0.0 0.00 0.00 0.84 94 1014.0
20200531030129 12 220 0.0 0.0 0.00 0.00 0.84 94 1014.0
20200531025129 12 220 0.0 0.0 0.00 0.00 0.84 94 1014.0
20200531024127 12 220 0.0 0.0 0.00 0.00 0.84 94 1013.9
20200531023126 12 220 0.0 0.0 0.00 0.00 0.84 94 1013.9
20200531022125 12 220 0.0 0.0 0.00 0.00 0.84 94 1013.7
20200531021125 12 280 0.0 0.0 0.00 0.00 0.84 94 1013.5
20200531020123 12 280 0.0 0.0 0.00 0.00 0.84 93 1013.5
20200531015122 12 281 0.0 0.0 0.00 0.00 0.84 93 1013.5
20200531014121 12 281 0.0 0.0 0.00 0.00 0.84 93 1013.4
20200531013120 12 281 0.0 0.0 0.00 0.00 0.84 93 1013.2
20200531012120 12 281 0.0 0.0 0.00 0.00 0.84 93 1013.3
20200531011119 12 281 0.0 0.0 0.00 0.00 0.84 92 1013.2
20200531010117 12 281 0.0 0.0 0.00 0.00 0.84 92 1013.1
20200531005116 12 281 0.0 0.0 0.00 0.00 0.84 92 1013.1
20200531004115 12 281 0.0 0.0 0.00 0.00 0.84 92 1013.2
20200531003115 12 257 0.0 0.0 0.00 0.00 0.84 92 1013.1
20200531002113 12 252 0.0 0.0 0.00 0.00 0.84 92 1013.0
20200531001112 12 252 0.0 0.0 0.00 0.00 0.84 92 1013.1
20200531000111 12 252 0.0 0.0 0.00 0.00 0.84 92 1013.0
20200530235110 12 252 0.0 0.0 0.00 0.00 0.84 92 1013.1
20200530234109 12 252 0.0 0.0 0.00 0.00 0.84 92 1013.1
20200530233108 12 252 0.0 0.0 0.00 0.00 0.81 90 1013.3
20200530232107 12 323 1.6 0.0 0.00 0.00 0.79 89 1011.8
20200530231106 13 265 0.0 0.0 0.00 0.00 0.74 89 1012.7
20200530230105 13 182 0.0 0.0 0.00 0.00 0.64 86 1013.6
20200530225104 13 182 0.0 0.0 0.00 0.00 0.43 86 1013.8
20200530224103 14 182 0.0 0.0 0.00 0.00 0.33 84 1014.0
20200530223102 15 182 0.0 0.0 0.00 0.00 0.18 83 1013.5
20200530222101 15 182 0.0 0.0 0.00 0.00 0.10 81 1013.5
20200530221100 15 182 0.0 0.0 0.00 0.00 0.10 78 1012.9
20200530220059 15 171 0.0 0.0 0.00 0.00 0.08 75 1012.3
20200530215058 16 169 1.6 0.0 0.00 0.00 0.08 70 1011.8
20200530214057 16 328 0.0 0.0 0.00 0.00 0.08 67 1011.3
20200530213056 16 316 0.0 0.0 0.00 0.00 0.08 71 1010.7
20200530212055 16 329 0.0 0.0 0.00 0.00 0.08 67 1010.1
20200530211054 16 310 3.2 0.0 0.00 0.00 0.08 61 1010.0
20200530210053 16 342 4.8 0.0 0.00 0.00 0.08 58 1009.7
20200530205052 16 325 3.2 0.0 0.00 0.00 0.08 58 1009.8
20200530204051 16 311 9.7 0.0 0.00 0.00 0.08 61 1009.5
20200530203050 16 333 0.0 0.0 0.00 0.00 0.08 66 1009.7
20200530202049 16 325 0.0 0.0 0.00 0.00 0.08 66 1009.4
20200530201048 16 333 4.8 0.0 0.00 0.00 0.08 63 1009.4
20200530200047 17 54 0.0 0.0 0.00 0.00 0.08 64 1009.4
20200530195046 16 206 0.0 0.0 0.00 0.00 0.08 67 1009.5
20200530194045 16 205 0.0 0.0 0.00 0.00 0.08 66 1009.5
20200530193044 16 212 3.2 0.0 0.00 0.00 0.08 65 1009.4
20200530192043 16 306 0.0 0.0 0.00 0.00 0.08 64 1009.5
20200530191042 16 296 0.0 0.0 0.00 0.00 0.08 63 1009.6
20200530190041 16 327 14.5 0.0 0.00 0.00 0.08 64 1009.6
20200530185040 16 17 6.4 0.0 0.00 0.00 0.08 65 1009.5
20200530184039 16 318 0.0 0.0 0.00 0.00 0.08 72 1009.4
20200530183038 15 157 0.0 0.0 0.00 0.00 0.08 75 1009.1
20200530182037 15 334 0.0 0.0 0.00 0.00 0.08 75 1009.2
20200530181036 14 19 0.0 0.0 0.00 0.00 0.08 76 1008.9
20200530180035 14 319 0.0 0.0 0.00 0.00 0.08 76 1009.0
20200530175034 14 342 0.0 0.0 0.00 0.00 0.08 76 1008.9
20200530174033 14 319 0.0 0.0 0.00 0.00 0.08 77 1008.8
20200530173032 14 326 6.4 0.0 0.00 0.00 0.05 77 1008.8
20200530172031 14 316 0.0 0.0 0.00 0.00 0.05 77 1008.5
20200530171029 14 321 0.0 0.0 0.00 0.00 0.05 77 1008.6
20200530170029 14 319 0.0 0.0 0.00 0.00 0.05 79 1008.3
20200530165027 13 34 0.0 0.0 0.00 0.00 0.05 80 1008.1
20200530164027 13 305 4.8 0.0 0.00 0.00 0.05 82 1007.9
20200530163025 13 306 0.0 0.0 0.00 0.00 0.05 83 1008.1
20200530162025 13 349 4.8 0.0 0.00 0.00 0.05 86 1008.5
20200530161024 13 42 0.0 0.0 0.00 0.00 0.05 86 1008.5
20200530160022 12 132 3.2 0.0 0.00 0.00 0.05 87 1008.4
20200530155021 12 132 0.0 0.0 0.00 0.00 0.05 88 1008.5
20200530154020 12 132 0.0 0.0 0.00 0.00 0.05 90 1008.6
20200530153019 12 132 0.0 0.0 0.00 0.00 0.05 89 1009.0
20200530152018 12 132 0.0 0.0 0.00 0.00 0.05 89 1009.0
20200530151017 12 132 0.0 0.0 0.00 0.00 0.05 89 1008.6
20200530150016 12 132 0.0 0.0 0.00 0.00 0.05 89 1008.8
20200530145016 12 132 0.0 0.0 0.00 0.00 0.05 89 1009.6
20200530144015 12 132 0.0 0.0 0.00 0.00 0.05 88 1009.1
20200530143013 12 132 0.0 0.0 0.00 0.00 0.05 87 1008.9
20200530142012 12 130 1.6 0.0 0.00 0.00 0.05 86 1008.9
20200530141012 12 130 1.6 0.0 0.00 0.00 0.05 85 1009.0
20200530140010 13 244 0.0 0.0 0.00 0.00 0.03 83 1008.4
20200530135010 13 244 0.0 0.0 0.00 0.00 0.03 82 1009.4
20200530134008 13 246 0.0 0.0 0.00 0.00 0.03 80 1009.9
20200530133008 13 246 0.0 0.0 0.00 0.00 0.03 79 1010.0
20200530132006 13 246 0.0 0.0 0.00 0.00 0.03 77 1010.5
20200530131005 13 246 0.0 0.0 0.00 0.00 0.00 71 1010.6
20200530130004 13 246 0.0 0.0 0.00 0.00 0.00 71 1010.7
20200530125003 13 313 0.0 0.0 0.00 0.00 0.00 70 1009.2
20200530124003 13 313 0.0 0.0 0.00 0.00 0.00 69 1008.6
20200530123002 14 313 0.0 0.0 0.00 0.00 0.00 69 1008.7
20200530122000 14 313 0.0 0.0 0.00 0.00 0.00 68 1008.7
20200530120959 14 313 0.0 0.0 0.00 0.00 0.00 67 1008.7
20200530115958 14 325 0.0 0.0 0.00 0.00 0.00 66 1008.6
20200530114957 14 325 0.0 0.0 0.00 0.00 0.00 66 1008.5
20200530113956 15 30 0.0 0.0 0.00 0.00 0.00 65 1008.4
20200530112955 15 351 0.0 0.0 0.00 0.00 0.00 65 1008.5
20200530111954 15 348 0.0 0.0 0.00 0.00 0.00 65 1008.5
20200530110953 15 348 0.0 0.0 0.00 0.00 0.00 65 1008.4
20200530105952 15 348 0.0 0.0 0.00 0.00 0.00 64 1008.4
20200530104951 15 348 0.0 0.0 0.00 0.00 0.00 64 1008.1
20200530103950 15 317 0.0 0.0 0.00 0.00 0.00 63 1008.0
20200530102949 15 317 0.0 0.0 0.00 0.00 0.00 63 1008.0
20200530101948 15 317 0.0 0.0 0.00 0.00 0.00 63 1008.0
20200530100947 15 322 0.0 0.0 0.00 0.00 0.00 62 1008.1
20200530095946 15 323 0.0 0.0 0.00 0.00 0.00 61 1008.4
20200530094945 15 324 0.0 0.0 0.00 0.00 0.00 61 1008.0
20200530093944 15 336 0.0 0.0 0.00 0.00 0.00 60 1007.9
20200530092943 16 322 0.0 0.0 0.00 0.00 0.00 60 1007.9
20200530091942 16 325 0.0 0.0 0.00 0.00 0.00 59 1008.0
20200530090941 16 309 0.0 0.0 0.00 0.00 0.00 58 1008.1
20200530085940 16 327 0.0 0.0 0.00 0.00 0.00 58 1007.9
20200530084939 16 322 0.0 0.0 0.00 0.00 0.00 57 1008.1
20200530083938 16 345 0.0 0.0 0.00 0.00 0.00 56 1008.1
20200530082937 16 333 0.0 0.0 0.00 0.00 0.00 56 1008.1
20200530081936 16 342 0.0 0.0 0.00 0.00 0.00 57 1008.1
20200530080935 16 342 0.0 0.0 0.00 0.00 0.00 57 1008.1
20200530075934 17 323 0.0 0.0 0.00 0.00 0.00 56 1008.3
20200530074933 17 323 0.0 0.0 0.00 0.00 0.00 56 1008.2
20200530073932 17 323 0.0 0.0 0.00 0.00 0.00 55 1008.1
20200530072931 17 323 0.0 0.0 0.00 0.00 0.00 56 1008.4